Location: Coopersdale
(40.3556°N, 78.9372°W)
Time: 14:54:58
(UTC+00:00)

Envisat - Pass Details

Date: 30 November 2020
Orbit: 764 x 766 km, 98.1° (Epoch: 15 January)

Event Time Altitude Azimuth Distance (km) Brightness Sun altitude
Rises 23:52:24 0° 220° (SW) 3,220 7.0 -22.8°
Reaches altitude 10° 23:56:44 10° 256° (WSW) 2,302 6.6 -23.6°
Maximum altitude 23:58:04 11° 272° (W) 2,238 6.4 -23.8°
Drops below altitude 10° 23:59:24 10° 287° (WNW) 2,307 6.3 -24.1°
Sets 00:03:46 0° 323° (NW) 3,240 6.6 -24.9°
